(43099) = 1998 RY32 = 1999 XO15

Discovered at Visnjan on 1999-12-05 by K. Korlevic.

Orbit

Orbit type: Main Belt

Note: WebGL enabled browser required.

epoch2024-03-31.0
epoch JD2460400.5
perihelion date2021-05-20.08482
perihelion JD2459354.58482
argument of perihelion (°)318.26915
ascending node (°)151.72340
inclination (°)3.55568
eccentricity0.0100906
perihelion distance (AU)2.9823742
Tisserand w.r.t. Jupiter3.2
ΔV w.r.t. Earth (km/sec)10.7
semimajor axis (AU)3.0127749
mean anomaly (°)197.12889
mean daily motion (°/day)0.18847500
aphelion distance (AU)3.043
period (years)5.23
P-vector [x]-0.34250499
P-vector [y]0.87757742
P-vector [z]0.33548204
Q-vector [x]-0.93905652
Q-vector [y]-0.33093488
Q-vector [z]-0.09303200
absolute magnitude14.25
phase slope0.15
uncertainty0
referenceMPEC 2024-D122
observations used1623
oppositions22
arc length (days)10899
first opposition used1993
last opposition used2023
residual rms (arc-secs)0.68
perturbers coarse indicatorM-v
perturbers precise indicator003Ek
first observation date used1993-09-10.0
last observation date used2023-07-14.0
computer nameMPCLINUX
JD of orbit computation2456966.926702
perihelion JD uncertainty (days)2.0184E-03
argument of perihelion uncertainty (°)3.8444E-04
ascending node uncertainty (°)5.6717E-05
inclination uncertainty (°)4.0543E-06
eccentricity uncertainty 3.0176E-08
perihelion distance uncertainty (AU)9.4465E-08
Minimum Orbit Intersection Distances (in AU)
for orbit epoch: 2460400.5, reference: E2024-DC2
Mercury2.57229
Venus2.26606
Earth1.99993
Mars1.32656
Jupiter1.93392
Saturn6.06095
Uranus15.4437
Neptune26.8169

Observations

1661 total observations over interval: 1993 09 10.44817 – 2023 07 14.153155
These data are available for download (format description).

Date (UT) J2000 RA J2000 Dec Magn Location Ref
1993 09 10.44817 00 50 47.12 +02 26 00.6 18.8 V 691 – Steward Observatory, Kitt Peak-Spacewatch MPS 79349
1993 09 10.48010 00 50 46.01 +02 25 50.9 18.9 V 691 – Steward Observatory, Kitt Peak-Spacewatch MPS 79349
1993 09 10.49014 00 50 45.66 +02 25 47.9 18.9 V 691 – Steward Observatory, Kitt Peak-Spacewatch MPS 79349
1998 08 03.40706 23 42 34.67 -02 44 20.6 19.0 R 699 – Lowell Observatory-LONEOS MPS 48736
1998 08 03.42692 23 42 34.45 -02 44 23.7   699 – Lowell Observatory-LONEOS MPS 48736
1998 08 03.44678 23 42 34.08 -02 44 25.6   699 – Lowell Observatory-LONEOS MPS 48736
1998 09 14.24997 23 19 21.67 -06 05 01.1 19.0   704 – Lincoln Laboratory ETS, New Mexico MPS 2312
1998 09 14.27202 23 19 20.65 -06 05 08.6 19.2   704 – Lincoln Laboratory ETS, New Mexico MPS 2312
1998 09 14.29395 23 19 19.72 -06 05 14.5 19.5   704 – Lincoln Laboratory ETS, New Mexico MPS 2312
1998 09 14.31606 23 19 18.64 -06 05 23.4 19.3   704 – Lincoln Laboratory ETS, New Mexico MPS 2312
1998 09 18.31020 23 16 24.71 -06 27 50.0 18.8   704 – Lincoln Laboratory ETS, New Mexico MPS 2312
1998 09 18.32300 23 16 24.10 -06 27 51.8 18.8   704 – Lincoln Laboratory ETS, New Mexico MPS 2312
1998 09 18.33605 23 16 23.55 -06 27 58.0 19.6   704 – Lincoln Laboratory ETS, New Mexico MPS 2312
1998 09 18.34922 23 16 22.88 -06 28 00.6 19.1   704 – Lincoln Laboratory ETS, New Mexico MPS 2312
1998 09 18.36251 23 16 22.26 -06 28 06.3 19.1   704 – Lincoln Laboratory ETS, New Mexico MPS 2312
1998 10 12.20607 23 02 16.51 -08 14 13.4 18.7 R 699 – Lowell Observatory-LONEOS MPS 56987
1998 10 12.23087 23 02 15.81 -08 14 17.9   699 – Lowell Observatory-LONEOS MPS 56987
1998 10 12.25569 23 02 15.18 -08 14 22.2   699 – Lowell Observatory-LONEOS MPS 56987
1999 11 04.39995 05 21 28.60 +18 14 45.2 19.3   704 – Lincoln Laboratory ETS, New Mexico MPS 8861
1999 11 04.40535 05 21 28.45 +18 14 45.2 19.2   704 – Lincoln Laboratory ETS, New Mexico MPS 8861
1999 11 04.41617 05 21 28.21 +18 14 44.2 19.3   704 – Lincoln Laboratory ETS, New Mexico MPS 8861
1999 11 04.42159 05 21 28.07 +18 14 44.1 19.3   704 – Lincoln Laboratory ETS, New Mexico MPS 8861
1999 11 04.43277 05 21 27.69 +18 14 43.2 19.3   704 – Lincoln Laboratory ETS, New Mexico MPS 8861
1999 11 04.43818 05 21 27.60 +18 14 42.9 19.0   704 – Lincoln Laboratory ETS, New Mexico MPS 8861
1999 11 04.44890 05 21 27.26 +18 14 40.9 19.7   704 – Lincoln Laboratory ETS, New Mexico MPS 8861
1999 11 04.45433 05 21 27.13 +18 14 41.7 19.7   704 – Lincoln Laboratory ETS, New Mexico MPS 8861
1999 11 04.46504 05 21 26.81 +18 14 39.7 19.2   704 – Lincoln Laboratory ETS, New Mexico MPS 8861
1999 11 04.47084 05 21 26.72 +18 14 40.3 19.3   704 – Lincoln Laboratory ETS, New Mexico MPS 8861
1999 11 15.42915 05 15 26.65 +17 58 26.8 18.9   704 – Lincoln Laboratory ETS, New Mexico MPS 8861
1999 11 15.44345 05 15 26.09 +17 58 25.7 19.1   704 – Lincoln Laboratory ETS, New Mexico MPS 8861
1999 11 15.45773 05 15 25.50 +17 58 24.6 19.2   704 – Lincoln Laboratory ETS, New Mexico MPS 8861
1999 11 15.47210 05 15 24.95 +17 58 23.2 19.0   704 – Lincoln Laboratory ETS, New Mexico MPS 8861
1999 11 15.48643 05 15 24.35 +17 58 22.4 18.8   704 – Lincoln Laboratory ETS, New Mexico MPS 8861
1999 11 17.28589 05 14 11.28 +17 55 42.6 19.0   704 – Lincoln Laboratory ETS, New Mexico MPS 8861
1999 11 17.30140 05 14 10.51 +17 55 41.7 19.4   704 – Lincoln Laboratory ETS, New Mexico MPS 8861
1999 11 17.33200 05 14 09.30 +17 55 38.5 19.5   704 – Lincoln Laboratory ETS, New Mexico MPS 8861
1999 11 17.34736 05 14 08.70 +17 55 37.4 19.5   704 – Lincoln Laboratory ETS, New Mexico MPS 8861
1999 11 29.98567 05 04 09.48 +17 37 55.3 18.6   120 – Visnjan MPS 8861
1999 11 30.00517 05 04 08.36 +17 37 53.7   120 – Visnjan MPS 8861
1999 12 05.95082 04 58 54.93 +17 30 30.6 18.8   120 – Visnjan MPS 7952
1999 12 05.96637 04 58 54.00 +17 30 29.1   120 – Visnjan MPS 7952
1999 12 06.93023 04 58 02.60 +17 29 23.2 18.8   120 – Visnjan MPS 7952
1999 12 06.96133 04 58 00.80 +17 29 20.7   120 – Visnjan MPS 7952
1999 12 08.32002 04 56 48.13 +17 27 49.9 18.6   704 – Lincoln Laboratory ETS, New Mexico MPS 7952
1999 12 08.33249 04 56 47.42 +17 27 49.5 19.2   704 – Lincoln Laboratory ETS, New Mexico MPS 7952
1999 12 08.34497 04 56 46.68 +17 27 48.1 19.2   704 – Lincoln Laboratory ETS, New Mexico MPS 7952
1999 12 08.35742 04 56 46.05 +17 27 47.5 18.6   704 – Lincoln Laboratory ETS, New Mexico MPS 7952
1999 12 08.36988 04 56 45.38 +17 27 46.4 18.8   704 – Lincoln Laboratory ETS, New Mexico MPS 7952
1999 12 14.15532 04 51 39.03 +17 22 00.0 18.6   704 – Lincoln Laboratory ETS, New Mexico MPS 8861
1999 12 14.17009 04 51 38.20 +17 21 58.8 18.5   704 – Lincoln Laboratory ETS, New Mexico MPS 8861
1999 12 14.18497 04 51 37.43 +17 21 57.7 18.6   704 – Lincoln Laboratory ETS, New Mexico MPS 8861
1999 12 14.21458 04 51 35.85 +17 21 56.9 18.8   704 – Lincoln Laboratory ETS, New Mexico MPS 8861
1999 12 31.79812 04 38 07.33 +17 13 47.7 18.8   120 – Visnjan MPS 8861
1999 12 31.85384 04 38 05.44 +17 13 46.0   120 – Visnjan MPS 8861
2001 01 21.38885 11 09 34.18 +05 29 09.1 18.7   704 – Lincoln Laboratory ETS, New Mexico MPS 25079
2001 01 21.40387 11 09 34.01 +05 29 12.4 18.9   704 – Lincoln Laboratory ETS, New Mexico MPS 25079
2001 01 21.41889 11 09 33.73 +05 29 13.3 18.7   704 – Lincoln Laboratory ETS, New Mexico MPS 25079
2001 01 21.44892 11 09 33.27 +05 29 17.1 19.5   704 – Lincoln Laboratory ETS, New Mexico MPS 25079
2001 01 26.38097 11 08 08.11 +05 43 28.6 18.5   704 – Lincoln Laboratory ETS, New Mexico MPS 25079
2001 01 26.39596 11 08 07.74 +05 43 31.9 18.9   704 – Lincoln Laboratory ETS, New Mexico MPS 25079
2001 01 26.41096 11 08 07.42 +05 43 34.9 18.8   704 – Lincoln Laboratory ETS, New Mexico MPS 25079
2001 01 26.42606 11 08 07.08 +05 43 37.7 19.1   704 – Lincoln Laboratory ETS, New Mexico MPS 25079
2001 01 26.44107 11 08 06.75 +05 43 41.1 18.7   704 – Lincoln Laboratory ETS, New Mexico MPS 25079
2001 02 19.20639 10 54 54.42 +07 32 58.0 18.2 R 699 – Lowell Observatory-LONEOS MPS 26584
2001 02 19.24537 10 54 52.65 +07 33 11.2   699 – Lowell Observatory-LONEOS MPS 26584
2001 02 19.28447 10 54 50.95 +07 33 24.3   699 – Lowell Observatory-LONEOS MPS 26584
2001 02 19.31214 10 54 49.68 +07 33 33.5 18.2   704 – Lincoln Laboratory ETS, New Mexico MPS 26584
2001 02 19.32383 10 54 49.15 +07 33 37.5   699 – Lowell Observatory-LONEOS MPS 26584
2001 02 19.32643 10 54 49.01 +07 33 37.8 18.3   704 – Lincoln Laboratory ETS, New Mexico MPS 26584
2001 02 19.34095 10 54 48.36 +07 33 42.8 18.0   704 – Lincoln Laboratory ETS, New Mexico MPS 26584
2001 02 19.35526 10 54 47.71 +07 33 47.4 18.6   704 – Lincoln Laboratory ETS, New Mexico MPS 26584
2001 02 19.36956 10 54 47.04 +07 33 52.7 18.4   704 – Lincoln Laboratory ETS, New Mexico MPS 26584
2001 02 22.31061 10 52 37.60 +07 50 31.6 17.7   704 – Lincoln Laboratory ETS, New Mexico MPS 26584
2001 02 22.32470 10 52 36.98 +07 50 36.3 18.1   704 – Lincoln Laboratory ETS, New Mexico MPS 26584
2001 02 22.33878 10 52 36.29 +07 50 41.1 17.9   704 – Lincoln Laboratory ETS, New Mexico MPS 26584
2001 02 22.35286 10 52 35.64 +07 50 45.2 18.1   704 – Lincoln Laboratory ETS, New Mexico MPS 26584
2001 02 22.36697 10 52 35.06 +07 50 50.6 18.3   704 – Lincoln Laboratory ETS, New Mexico MPS 26584
2001 03 15.27878 10 36 59.85 +09 47 10.0 18.2 R 699 – Lowell Observatory-LONEOS MPS 27700
2001 03 15.29359 10 36 59.25 +09 47 14.1   699 – Lowell Observatory-LONEOS MPS 27700
2001 03 15.30842 10 36 58.59 +09 47 18.8   699 – Lowell Observatory-LONEOS MPS 27700
2001 03 15.32327 10 36 57.99 +09 47 23.7   699 – Lowell Observatory-LONEOS MPS 27700
2001 03 18.24490 10 35 00.98 +10 01 39.8 18.4   704 – Lincoln Laboratory ETS, New Mexico MPS 27700
2001 03 18.25782 10 35 00.46 +10 01 43.3 18.6   704 – Lincoln Laboratory ETS, New Mexico MPS 27700
2001 03 18.27075 10 34 59.97 +10 01 47.2 18.6   704 – Lincoln Laboratory ETS, New Mexico MPS 27700
2001 03 18.28369 10 34 59.42 +10 01 50.4 18.4   704 – Lincoln Laboratory ETS, New Mexico MPS 27700
2001 03 18.29664 10 34 58.88 +10 01 55.4 18.5   704 – Lincoln Laboratory ETS, New Mexico MPS 27700
2001 03 20.32518 10 33 41.81 +10 11 20.0 19.4   608 – Haleakala-AMOS MPS 27700
